User: anonymous   Login
Location: Unspecified
(0.0000°N, 0.0000°E)
Time: 10:59:19
(UTC+00:00)
Language:

STARLINK-32180 - Orbit

View from above orbital plane
View from above orbital plane
View from above satellite
View from above satellite

Ground track
Ground track

The orbit is defined by the following mean orbital elements,

1 60374U          26145.46699727 +.00000000 +00000-0 +89877-4 0 00004
2 60374  53.1614 312.8999 0001413  80.8151 279.3010 15.31694867    07
Epoch (UTC): 25 May 2026 11:12:28
Eccentricity: 0.0001413
inclination: 53.1614°
perigee height: 470 km
apogee height: 472 km
right ascension of ascending node: 312.8999°
argument of perigee: 80.8151°
revolutions per day: 15.31694867
mean anomaly at epoch: 279.3010°

The dashed part of the orbit path shows where the satellite is in the earth's shadow,  

DLR